KLM525 EHAM-OMDB

Flight info

Callsign KLM525
Flight time 6h 22m
Altitude 37000
Route ARNEM L620 HMM DCT NOMKA DCT OMELO DCT AMRAX/N0476F390 DCT GANNA DCT IRLOX DCT RONBU P975 ARTAT UP975 EZS UG8 OTKEP UM688 RATVO M688 SIDAD P975 SESRU M677 VUTEB
Aircraft A359/H-SDE2E3GHIJ3J4J5LM1ORWXY/LB1D1

Departure

Time 2026-05-04 11:59
Airport Amsterdam Airport Schiphol (EHAM)

Arrival

Time 2026-05-04 18:21
Airport Dubai International Airport (OMDB)
Time Latitude Longitude Altitude Speed Heading
2026-05-04 11:41 52.31118 4.76709 5 ft 0 kts 303°
2026-05-04 11:50 52.31120 4.76703 5 ft 5 kts 303°
2026-05-04 11:50 52.31111 4.76728 6 ft 4 kts 288°
2026-05-04 11:50 52.31104 4.76770 8 ft 3 kts 296°
2026-05-04 11:50 52.31090 4.76803 7 ft 4 kts 329°
2026-05-04 11:51 52.31067 4.76812 9 ft 4 kts 10°
2026-05-04 11:51 52.31045 4.76805 7 ft 0 kts
2026-05-04 11:51 52.31052 4.76806 7 ft 0 kts
2026-05-04 11:53 52.31057 4.76814 5 ft 2 kts 39°
2026-05-04 11:53 52.31069 4.76848 5 ft 8 kts 60°
2026-05-04 11:55 52.30601 4.77549 6 ft 14 kts 198°
2026-05-04 11:55 52.30576 4.77548 5 ft 0 kts 170°
2026-05-04 11:57 52.30548 4.77562 5 ft 13 kts 159°
2026-05-04 11:57 52.30442 4.77632 5 ft 17 kts 182°
2026-05-04 11:57 52.30365 4.77508 4 ft 16 kts 238°
2026-05-04 11:57 52.30346 4.77459 4 ft 0 kts 238°
2026-05-04 11:58 52.30304 4.77349 3 ft 40 kts 238°
2026-05-04 11:58 52.30033 4.76644 4 ft 103 kts 238°
2026-05-04 11:59 52.29556 4.75403 4 ft 154 kts 238°
2026-05-04 11:59 52.28910 4.73760 279 ft 175 kts 238°
2026-05-04 11:59 52.28169 4.72324 1159 ft 160 kts 223°
2026-05-04 11:59 52.27175 4.71391 1567 ft 174 kts 198°
2026-05-04 12:00 52.25905 4.71340 1801 ft 196 kts 167°
2026-05-04 12:00 52.24642 4.72355 2069 ft 214 kts 145°
2026-05-04 12:00 52.23412 4.73799 2516 ft 223 kts 146°
2026-05-04 12:00 52.22108 4.75231 3066 ft 226 kts 148°
2026-05-04 12:01 52.20812 4.76705 3615 ft 228 kts 137°
2026-05-04 12:01 52.19886 4.78818 4135 ft 235 kts 117°
2026-05-04 12:02 52.18631 4.95332 6918 ft 279 kts 70°
2026-05-04 12:03 52.19271 4.98357 7442 ft 283 kts 72°
2026-05-04 12:03 52.19857 5.01442 8011 ft 286 kts 73°
2026-05-04 12:03 52.20424 5.04553 8628 ft 287 kts 73°
2026-05-04 12:03 52.21020 5.07668 9230 ft 289 kts 73°
2026-05-04 12:04 52.21622 5.10819 9802 ft 292 kts 73°
2026-05-04 12:04 52.22225 5.14004 10251 ft 300 kts 73°
2026-05-04 12:04 52.22638 5.16199 10402 ft 309 kts 73°
2026-05-04 12:04 52.23281 5.19625 10637 ft 323 kts 73°
2026-05-04 12:05 52.23946 5.23212 10873 ft 337 kts 74°
2026-05-04 12:05 52.24316 5.27051 11070 ft 349 kts 90°
2026-05-04 12:05 52.24198 5.31061 11360 ft 358 kts 95°
2026-05-04 12:05 52.23980 5.35134 11783 ft 363 kts 96°
2026-05-04 12:06 52.23757 5.39259 12237 ft 367 kts 96°
2026-05-04 12:06 52.23536 5.43424 12686 ft 371 kts 96°
2026-05-04 12:06 52.23316 5.47638 13140 ft 374 kts 96°
2026-05-04 12:06 52.23038 5.51869 13586 ft 377 kts 101°
2026-05-04 12:07 52.22311 5.55978 14064 ft 379 kts 111°
2026-05-04 12:07 52.21353 5.60003 14535 ft 381 kts 113°
2026-05-04 12:07 52.20364 5.64026 14980 ft 383 kts 113°
2026-05-04 12:07 52.19369 5.68075 15414 ft 386 kts 113°
2026-05-04 12:08 52.18371 5.72149 15840 ft 389 kts 113°
2026-05-04 12:08 52.17368 5.76249 16268 ft 391 kts 113°
2026-05-04 12:08 52.16357 5.80378 16696 ft 393 kts 113°
2026-05-04 12:08 52.15341 5.84527 17115 ft 396 kts 113°
2026-05-04 12:09 52.14315 5.88705 17532 ft 399 kts 114°
2026-05-04 12:09 52.13282 5.92907 17939 ft 401 kts 114°
2026-05-04 12:09 52.12246 5.97115 18399 ft 401 kts 114°
2026-05-04 12:09 52.11205 6.01337 18743 ft 404 kts 114°
2026-05-04 12:10 52.10167 6.05597 19091 ft 406 kts 112°
2026-05-04 12:10 52.09364 6.10026 19437 ft 410 kts 105°
2026-05-04 12:10 52.08775 6.14580 19784 ft 413 kts 102°
2026-05-04 12:10 52.08291 6.19201 20122 ft 416 kts 101°
2026-05-04 12:11 52.07848 6.23862 20467 ft 418 kts 101°
2026-05-04 12:11 52.07407 6.28551 20789 ft 421 kts 101°
2026-05-04 12:11 52.06951 6.33261 21122 ft 423 kts 102°
2026-05-04 12:11 52.06478 6.37983 21450 ft 425 kts 102°
2026-05-04 12:12 52.05993 6.42677 21704 ft 429 kts 103°
2026-05-04 12:12 52.05487 6.47465 22010 ft 431 kts 103°
2026-05-04 12:12 52.04974 6.52273 22346 ft 433 kts 103°
2026-05-04 12:12 52.04456 6.57098 22664 ft 435 kts 103°
2026-05-04 12:13 52.03932 6.61953 22973 ft 437 kts 103°
2026-05-04 12:14 51.99340 6.96209 24773 ft 451 kts 110°
2026-05-04 12:15 51.98511 7.01127 25039 ft 453 kts 109°
2026-05-04 12:15 51.97694 7.06075 25300 ft 455 kts 109°
2026-05-04 12:15 51.96885 7.11045 25545 ft 457 kts 109°
2026-05-04 12:15 51.96046 7.16027 25818 ft 458 kts 111°
2026-05-04 12:16 51.95139 7.20984 26083 ft 460 kts 111°
2026-05-04 12:16 51.94194 7.25950 26379 ft 462 kts 112°
2026-05-04 12:16 51.93238 7.30930 26671 ft 464 kts 112°
2026-05-04 12:16 51.92281 7.35933 26907 ft 467 kts 112°
2026-05-04 12:17 51.91323 7.40973 27199 ft 470 kts 112°
2026-05-04 12:17 51.90364 7.46048 27544 ft 472 kts 112°
2026-05-04 12:17 51.89403 7.51151 27857 ft 475 kts 112°
2026-05-04 12:17 51.88439 7.56268 28148 ft 477 kts 112°
2026-05-04 12:18 51.87468 7.61417 28418 ft 479 kts 112°
2026-05-04 12:18 51.86492 7.66577 28703 ft 481 kts 112°
2026-05-04 12:18 51.85507 7.71768 28997 ft 484 kts 112°
2026-05-04 12:18 51.84626 7.77044 29282 ft 488 kts 108°
2026-05-04 12:19 51.83895 7.82431 29544 ft 492 kts 106°
2026-05-04 12:19 51.83222 7.87877 29800 ft 496 kts 105°
2026-05-04 12:19 51.82553 7.93357 30086 ft 498 kts 106°
2026-05-04 12:19 51.81866 7.98846 30340 ft 499 kts 106°
2026-05-04 12:20 51.81163 8.04273 30600 ft 501 kts 107°
2026-05-04 12:20 51.80418 8.09859 30867 ft 502 kts 107°
2026-05-04 12:20 51.79667 8.15378 31121 ft 504 kts 107°
2026-05-04 12:20 51.78905 8.20913 31371 ft 506 kts 107°
2026-05-04 12:21 51.78134 8.26467 31612 ft 507 kts 107°
2026-05-04 12:21 51.77358 8.32033 31820 ft 509 kts 107°
2026-05-04 12:21 51.76587 8.37552 32037 ft 511 kts 107°
2026-05-04 12:21 51.75802 8.43154 32258 ft 513 kts 107°
2026-05-04 12:22 51.75013 8.48780 32499 ft 514 kts 107°
2026-05-04 12:22 51.74220 8.54411 32720 ft 516 kts 107°
2026-05-04 12:22 51.73421 8.60065 32927 ft 518 kts 107°
2026-05-04 12:22 51.72615 8.65738 33107 ft 519 kts 107°
2026-05-04 12:23 51.71809 8.71402 33433 ft 518 kts 107°
2026-05-04 12:23 51.71002 8.77055 33716 ft 517 kts 107°
2026-05-04 12:23 51.70192 8.82706 33949 ft 518 kts 107°
2026-05-04 12:23 51.69378 8.88359 34207 ft 517 kts 107°
2026-05-04 12:24 51.68564 8.93996 34497 ft 516 kts 107°
2026-05-04 12:24 51.67749 8.99617 34767 ft 515 kts 107°
2026-05-04 12:24 51.66933 9.05224 34999 ft 514 kts 107°
2026-05-04 12:24 51.66113 9.10827 35251 ft 514 kts 107°
2026-05-04 12:25 51.65292 9.16427 35518 ft 513 kts 107°
2026-05-04 12:25 51.64471 9.22005 35762 ft 512 kts 108°
2026-05-04 12:25 51.63647 9.27579 35989 ft 511 kts 108°
2026-05-04 12:25 51.62822 9.33143 36210 ft 511 kts 108°
2026-05-04 12:26 51.61993 9.38707 36439 ft 511 kts 108°
2026-05-04 12:26 51.61164 9.44261 36634 ft 511 kts 108°
2026-05-04 12:26 51.60332 9.49815 36847 ft 510 kts 108°
2026-05-04 12:26 51.59497 9.55362 36972 ft 511 kts 108°
2026-05-04 12:27 51.57821 9.66450 36980 ft 510 kts 108°
2026-05-04 12:27 51.56134 9.77529 36981 ft 511 kts 108°
2026-05-04 12:28 51.54435 9.88610 36971 ft 511 kts 108°
2026-05-04 12:28 51.52725 9.99688 36970 ft 511 kts 108°
2026-05-04 12:29 51.51004 10.10768 36975 ft 511 kts 108°
2026-05-04 12:29 51.49274 10.21822 36973 ft 510 kts 108°
2026-05-04 12:30 51.47538 10.32846 36980 ft 510 kts 108°
2026-05-04 12:30 51.45790 10.43883 36978 ft 510 kts 108°
2026-05-04 12:31 51.44032 10.54922 36977 ft 512 kts 108°
2026-05-04 12:31 51.42295 10.65899 36975 ft 511 kts 108°
2026-05-04 12:32 51.39650 10.82512 36978 ft 511 kts 108°
2026-05-04 12:33 51.37879 10.93526 36978 ft 511 kts 108°
2026-05-04 12:33 51.36098 11.04524 36977 ft 510 kts 108°
2026-05-04 12:34 51.34306 11.15513 36977 ft 510 kts 108°
2026-05-04 12:34 51.32507 11.26479 36976 ft 510 kts 108°
2026-05-04 12:35 51.30696 11.37448 36981 ft 510 kts 108°
2026-05-04 12:35 51.28875 11.48405 36980 ft 510 kts 108°
2026-05-04 12:36 51.27043 11.59355 36982 ft 510 kts 108°
2026-05-04 12:36 51.25217 11.70208 36982 ft 510 kts 108°
2026-05-04 12:37 51.23368 11.81123 36983 ft 510 kts 108°
2026-05-04 12:37 51.21508 11.92037 36985 ft 510 kts 108°
2026-05-04 12:38 51.19638 12.02935 36984 ft 510 kts 108°
2026-05-04 12:38 51.17758 12.13828 36970 ft 510 kts 108°
2026-05-04 12:39 51.15873 12.24689 36986 ft 508 kts 108°
2026-05-04 12:39 51.13980 12.35525 36989 ft 508 kts 109°
2026-05-04 12:40 51.12076 12.46354 36986 ft 508 kts 108°
2026-05-04 12:40 51.10160 12.57184 36991 ft 508 kts 108°
2026-05-04 12:41 51.08236 12.67998 36991 ft 508 kts 108°
2026-05-04 12:41 51.06301 12.78808 36988 ft 508 kts 109°
2026-05-04 12:42 51.04358 12.89598 36976 ft 508 kts 108°
2026-05-04 12:42 51.02406 13.00379 36979 ft 507 kts 109°
2026-05-04 12:43 51.00447 13.11131 36981 ft 507 kts 109°
2026-05-04 12:43 50.98490 13.21805 36976 ft 507 kts 109°
2026-05-04 12:44 50.96509 13.32551 36970 ft 507 kts 109°
2026-05-04 12:44 50.94523 13.43258 36970 ft 506 kts 109°
2026-05-04 12:45 50.92530 13.53950 36975 ft 506 kts 109°
2026-05-04 12:45 50.90528 13.64624 36970 ft 506 kts 109°
2026-05-04 12:46 50.88514 13.75297 36972 ft 505 kts 109°
2026-05-04 12:46 50.86491 13.85958 36970 ft 506 kts 109°
2026-05-04 12:47 50.84370 13.96559 36974 ft 504 kts 114°
2026-05-04 12:47 50.80987 14.06137 36976 ft 497 kts 127°
2026-05-04 12:48 50.76968 14.15025 36975 ft 497 kts 129°
2026-05-04 12:48 50.72844 14.23783 36976 ft 497 kts 130°
2026-05-04 12:49 50.68724 14.32530 36978 ft 497 kts 129°
2026-05-04 12:49 50.64614 14.41287 36981 ft 497 kts 129°
2026-05-04 12:50 50.60508 14.50032 36980 ft 496 kts 129°
2026-05-04 12:50 50.56401 14.58750 36977 ft 496 kts 129°
2026-05-04 12:51 50.52283 14.67460 36985 ft 496 kts 129°
2026-05-04 12:51 50.48189 14.76091 36985 ft 496 kts 129°
2026-05-04 12:52 50.44061 14.84763 36989 ft 496 kts 129°
2026-05-04 12:52 50.40598 14.92016 36987 ft 496 kts 129°
2026-05-04 12:53 50.36457 15.00665 36988 ft 496 kts 129°
2026-05-04 12:53 50.32337 15.09243 36988 ft 496 kts 129°
2026-05-04 12:54 50.28156 15.17918 36995 ft 496 kts 129°
2026-05-04 12:54 50.24027 15.26457 36993 ft 496 kts 129°
2026-05-04 12:55 50.19860 15.35045 36990 ft 497 kts 129°
2026-05-04 12:55 50.15675 15.43640 36991 ft 498 kts 129°
2026-05-04 12:56 50.11479 15.52232 36992 ft 498 kts 129°
2026-05-04 12:56 50.07276 15.60812 36993 ft 498 kts 130°
2026-05-04 12:57 50.03068 15.69373 36988 ft 498 kts 129°
2026-05-04 12:57 49.98849 15.77927 36994 ft 499 kts 129°
2026-05-04 12:58 49.94622 15.86472 36994 ft 499 kts 129°
2026-05-04 12:58 49.90387 15.95006 36995 ft 499 kts 129°
2026-05-04 12:59 49.86146 16.03521 36998 ft 499 kts 130°
2026-05-04 12:59 49.81903 16.12016 36997 ft 497 kts 129°
2026-05-04 13:00 49.77665 16.20473 37086 ft 497 kts 129°
2026-05-04 13:00 49.75571 16.24640 37264 ft 497 kts 129°
2026-05-04 13:00 49.73452 16.28852 37506 ft 496 kts 130°
2026-05-04 13:00 49.71339 16.33044 37712 ft 495 kts 130°
2026-05-04 13:01 49.69220 16.37242 37874 ft 495 kts 130°
2026-05-04 13:01 49.67099 16.41438 38032 ft 495 kts 130°
2026-05-04 13:01 49.64981 16.45620 38252 ft 493 kts 129°
2026-05-04 13:01 49.62868 16.49787 38458 ft 492 kts 130°
2026-05-04 13:02 49.60757 16.53944 38615 ft 492 kts 130°
2026-05-04 13:02 49.58646 16.58093 38723 ft 492 kts 130°
2026-05-04 13:02 49.56531 16.62242 38818 ft 492 kts 130°
2026-05-04 13:02 49.54416 16.66387 38950 ft 492 kts 130°
2026-05-04 13:03 49.52298 16.70531 38992 ft 494 kts 130°
2026-05-04 13:03 49.48028 16.78862 38993 ft 497 kts 130°
2026-05-04 13:04 49.43747 16.87191 38993 ft 496 kts 130°
2026-05-04 13:04 49.39468 16.95495 38985 ft 496 kts 130°
2026-05-04 13:05 49.35175 17.03794 38993 ft 497 kts 130°
2026-05-04 13:05 49.30902 17.12029 38993 ft 497 kts 130°
2026-05-04 13:06 49.26590 17.20314 38994 ft 498 kts 130°
2026-05-04 13:06 49.22260 17.28608 38998 ft 499 kts 130°
2026-05-04 13:07 49.17929 17.36877 39013 ft 497 kts 130°
2026-05-04 13:07 49.13594 17.45130 39017 ft 499 kts 130°
2026-05-04 13:08 49.09245 17.53381 39022 ft 499 kts 130°
2026-05-04 13:08 49.04893 17.61615 39020 ft 498 kts 130°
2026-05-04 13:09 49.00532 17.69841 39022 ft 500 kts 130°
2026-05-04 13:09 48.96158 17.78064 39017 ft 499 kts 130°
2026-05-04 13:10 48.91790 17.86253 39023 ft 499 kts 130°
2026-05-04 13:10 48.87402 17.94450 39025 ft 501 kts 130°
2026-05-04 13:11 48.83007 18.02637 39031 ft 498 kts 130°
2026-05-04 13:11 48.78612 18.10800 39051 ft 501 kts 130°
2026-05-04 13:12 48.74196 18.18974 39029 ft 500 kts 130°
2026-05-04 13:12 48.69797 18.27092 39044 ft 498 kts 130°
2026-05-04 13:13 48.65400 18.35184 39044 ft 498 kts 130°
2026-05-04 13:13 48.60996 18.43264 39030 ft 497 kts 130°
2026-05-04 13:14 48.56595 18.51315 39036 ft 497 kts 130°
2026-05-04 13:14 48.52177 18.59370 39036 ft 499 kts 130°
2026-05-04 13:15 48.47761 18.67398 39040 ft 496 kts 130°
2026-05-04 13:15 48.43348 18.75398 39060 ft 498 kts 130°
2026-05-04 13:16 48.38910 18.83418 39062 ft 498 kts 130°
2026-05-04 13:16 48.34490 18.91382 39049 ft 494 kts 130°
2026-05-04 13:17 48.30103 18.99264 39065 ft 496 kts 130°
2026-05-04 13:17 48.25671 19.07202 39047 ft 496 kts 130°
2026-05-04 13:18 48.21246 19.15104 39065 ft 495 kts 130°
2026-05-04 13:18 48.16809 19.23005 39068 ft 496 kts 130°
2026-05-04 13:19 48.12367 19.30890 39056 ft 494 kts 130°
2026-05-04 13:19 48.07944 19.38753 39066 ft 494 kts 128°
2026-05-04 13:20 48.03842 19.47032 39053 ft 496 kts 124°
2026-05-04 13:20 47.99891 19.55450 39074 ft 494 kts 124°
2026-05-04 13:21 47.95897 19.63803 39062 ft 495 kts 125°
2026-05-04 13:21 47.91848 19.72105 39084 ft 494 kts 126°
2026-05-04 13:22 47.87783 19.80366 39062 ft 495 kts 125°
2026-05-04 13:22 47.83707 19.88625 39075 ft 494 kts 125°
2026-05-04 13:23 47.79664 19.96800 39079 ft 493 kts 125°
2026-05-04 13:23 47.75595 20.05009 39078 ft 494 kts 125°
2026-05-04 13:24 47.71517 20.13210 39076 ft 493 kts 125°
2026-05-04 13:24 47.67434 20.21394 39083 ft 493 kts 125°
2026-05-04 13:25 47.61308 20.33632 39080 ft 493 kts 125°
2026-05-04 13:25 47.57212 20.41781 39083 ft 493 kts 125°
2026-05-04 13:26 47.53112 20.49915 39087 ft 493 kts 125°
2026-05-04 13:26 47.49008 20.58035 39085 ft 493 kts 126°
2026-05-04 13:27 47.44899 20.66138 39085 ft 493 kts 126°
2026-05-04 13:27 47.40783 20.74234 39085 ft 493 kts 126°
2026-05-04 13:28 47.36662 20.82313 39086 ft 493 kts 126°
2026-05-04 13:28 47.32554 20.90344 39085 ft 493 kts 126°
2026-05-04 13:29 47.28414 20.98415 39092 ft 494 kts 126°
2026-05-04 13:29 47.24273 21.06462 39088 ft 494 kts 126°
2026-05-04 13:30 47.20118 21.14514 39091 ft 493 kts 126°
2026-05-04 13:30 47.15967 21.22535 39095 ft 493 kts 126°
2026-05-04 13:31 47.11813 21.30538 39090 ft 493 kts 126°
2026-05-04 13:31 47.07653 21.38529 39091 ft 493 kts 126°
2026-05-04 13:32 47.03486 21.46511 39095 ft 492 kts 126°
2026-05-04 13:32 46.99324 21.54460 39094 ft 492 kts 126°
2026-05-04 13:33 46.95154 21.62402 39100 ft 492 kts 126°
2026-05-04 13:33 46.90981 21.70327 39101 ft 492 kts 126°
2026-05-04 13:34 46.86803 21.78240 39104 ft 491 kts 126°
2026-05-04 13:34 46.82623 21.86133 39099 ft 491 kts 126°
2026-05-04 13:35 46.76337 21.97956 39097 ft 491 kts 126°
2026-05-04 13:36 46.72141 22.05824 39102 ft 491 kts 126°
2026-05-04 13:36 46.67983 22.13706 39095 ft 490 kts 125°
2026-05-04 13:37 46.64020 22.21783 39095 ft 490 kts 123°
2026-05-04 13:37 46.60090 22.29883 39094 ft 490 kts 124°
2026-05-04 13:38 46.56127 22.37939 39100 ft 490 kts 124°
2026-05-04 13:38 46.52166 22.45910 39091 ft 489 kts 124°
2026-05-04 13:39 46.48174 22.53907 39088 ft 489 kts 124°
2026-05-04 13:39 46.44180 22.61889 39087 ft 489 kts 124°
2026-05-04 13:40 46.40179 22.69862 39098 ft 488 kts 124°
2026-05-04 13:40 46.36189 22.77793 39084 ft 487 kts 124°
2026-05-04 13:41 46.32201 22.85697 39086 ft 486 kts 124°
2026-05-04 13:41 46.28207 22.93592 39077 ft 487 kts 124°
2026-05-04 13:42 46.22873 23.04100 39080 ft 487 kts 124°
2026-05-04 13:42 46.18862 23.11978 39068 ft 487 kts 124°
2026-05-04 13:43 46.14848 23.19839 39071 ft 487 kts 124°
2026-05-04 13:43 46.10826 23.27693 39077 ft 487 kts 124°
2026-05-04 13:44 46.06800 23.35530 39065 ft 486 kts 124°
2026-05-04 13:44 46.02769 23.43356 39060 ft 486 kts 125°
2026-05-04 13:45 45.98739 23.51160 39059 ft 486 kts 125°
2026-05-04 13:45 45.94701 23.58957 39055 ft 486 kts 125°
2026-05-04 13:46 45.90658 23.66743 39053 ft 486 kts 125°
2026-05-04 13:46 45.86611 23.74512 39067 ft 486 kts 125°
2026-05-04 13:47 45.82562 23.82268 39071 ft 486 kts 125°
2026-05-04 13:47 45.78503 23.90019 39074 ft 486 kts 125°
2026-05-04 13:48 45.74447 23.97744 39075 ft 486 kts 125°
2026-05-04 13:48 45.70378 24.05472 39072 ft 486 kts 125°
2026-05-04 13:49 45.66307 24.13183 39058 ft 486 kts 125°
2026-05-04 13:49 45.62021 24.20670 39047 ft 488 kts 130°
2026-05-04 13:50 45.57416 24.27791 39050 ft 489 kts 131°
2026-05-04 13:50 45.52747 24.34859 39050 ft 490 kts 131°
2026-05-04 13:51 45.48061 24.41924 39043 ft 490 kts 131°
2026-05-04 13:51 45.43388 24.48968 39042 ft 490 kts 132°
2026-05-04 13:52 45.36396 24.59488 39037 ft 490 kts 131°
2026-05-04 13:53 45.31710 24.66515 39035 ft 489 kts 132°
2026-05-04 13:53 45.27022 24.73532 39030 ft 491 kts 132°
2026-05-04 13:54 45.19955 24.84073 39030 ft 491 kts 132°
2026-05-04 13:55 45.12880 24.94582 39020 ft 491 kts 132°
2026-05-04 13:55 45.05796 25.05067 39020 ft 490 kts 132°
2026-05-04 13:56 45.01083 25.12021 39020 ft 490 kts 132°
2026-05-04 13:57 44.93995 25.22446 39029 ft 490 kts 133°
2026-05-04 13:58 44.84600 25.36199 39020 ft 485 kts 133°
2026-05-04 13:58 44.77562 25.46461 39027 ft 485 kts 133°
2026-05-04 13:59 44.72874 25.53273 39020 ft 484 kts 133°
2026-05-04 14:00 44.65851 25.63449 39028 ft 483 kts 133°
2026-05-04 14:00 44.58810 25.73613 39041 ft 484 kts 133°
2026-05-04 14:01 44.54113 25.80370 39041 ft 484 kts 133°
2026-05-04 14:02 44.47055 25.90495 39047 ft 484 kts 133°
2026-05-04 14:02 44.42342 25.97234 39048 ft 484 kts 133°
2026-05-04 14:03 44.37622 26.03969 39054 ft 486 kts 133°
2026-05-04 14:03 44.32884 26.10708 39045 ft 486 kts 133°
2026-05-04 14:04 44.25778 26.20792 39034 ft 486 kts 133°
2026-05-04 14:04 44.21033 26.27505 39034 ft 486 kts 133°
2026-05-04 14:05 44.13947 26.37497 39037 ft 485 kts 133°
2026-05-04 14:06 44.09196 26.44176 39032 ft 485 kts 133°
2026-05-04 14:06 44.04629 26.51075 39033 ft 484 kts 126°
2026-05-04 14:07 44.00625 26.58591 39034 ft 484 kts 124°
2026-05-04 14:07 43.96725 26.66202 39034 ft 484 kts 124°
2026-05-04 14:08 43.92827 26.73821 39034 ft 484 kts 123°
2026-05-04 14:08 43.88919 26.81409 39029 ft 483 kts 124°
2026-05-04 14:09 43.83041 26.92749 39029 ft 483 kts 124°
2026-05-04 14:10 43.77156 27.04056 39024 ft 481 kts 124°
2026-05-04 14:10 43.73249 27.11539 39022 ft 479 kts 124°
2026-05-04 14:11 43.69343 27.19004 39024 ft 479 kts 124°
2026-05-04 14:11 43.63479 27.30175 39022 ft 478 kts 125°
2026-05-04 14:12 43.59563 27.37609 39017 ft 478 kts 124°
2026-05-04 14:13 43.53691 27.48722 39015 ft 478 kts 124°
2026-05-04 14:13 43.49783 27.56095 39016 ft 479 kts 124°
2026-05-04 14:14 43.45851 27.63497 39015 ft 478 kts 124°
2026-05-04 14:14 43.39945 27.74576 39018 ft 478 kts 124°
2026-05-04 14:15 43.32055 27.89314 39021 ft 479 kts 124°
2026-05-04 14:16 43.26116 28.00360 39019 ft 479 kts 124°
2026-05-04 14:17 43.20161 28.11392 39019 ft 481 kts 125°
2026-05-04 14:18 43.14171 28.22450 39016 ft 482 kts 125°
2026-05-04 14:19 43.06173 28.37149 39020 ft 481 kts 124°
2026-05-04 14:19 43.02165 28.44488 39017 ft 481 kts 124°
2026-05-04 14:20 42.98154 28.51815 39011 ft 482 kts 125°
2026-05-04 14:20 42.94137 28.59132 39014 ft 481 kts 125°
2026-05-04 14:21 42.88124 28.70057 39016 ft 482 kts 124°
2026-05-04 14:21 42.84090 28.77361 39007 ft 482 kts 124°
2026-05-04 14:22 42.80053 28.84654 39006 ft 482 kts 124°
2026-05-04 14:22 42.76011 28.91940 38995 ft 482 kts 125°
2026-05-04 14:23 42.69929 29.02863 38990 ft 484 kts 125°
2026-05-04 14:24 42.65856 29.10158 39002 ft 484 kts 125°
2026-05-04 14:24 42.61779 29.17442 38986 ft 485 kts 125°
2026-05-04 14:25 42.57695 29.24720 38993 ft 484 kts 124°
2026-05-04 14:25 42.51591 29.35562 38989 ft 484 kts 125°
2026-05-04 14:26 42.47501 29.42808 38983 ft 484 kts 125°
2026-05-04 14:26 42.43407 29.50046 38989 ft 485 kts 125°
2026-05-04 14:27 42.39304 29.57281 38986 ft 484 kts 124°
2026-05-04 14:27 42.35865 29.65034 38973 ft 479 kts 110°
2026-05-04 14:28 42.33526 29.73452 38966 ft 478 kts 107°
2026-05-04 14:28 42.31385 29.81959 38967 ft 478 kts 106°
2026-05-04 14:29 42.27469 29.97517 38953 ft 478 kts 106°
2026-05-04 14:30 42.25299 30.05997 38956 ft 479 kts 107°
2026-05-04 14:31 42.22020 30.18712 38952 ft 479 kts 107°
2026-05-04 14:32 42.17615 30.35705 38934 ft 480 kts 106°
2026-05-04 14:32 42.15400 30.44209 38935 ft 481 kts 107°
2026-05-04 14:33 42.13175 30.52718 38927 ft 482 kts 107°
2026-05-04 14:33 42.10934 30.61254 38920 ft 483 kts 107°
2026-05-04 14:34 42.08689 30.69779 38918 ft 483 kts 107°
2026-05-04 14:34 42.06435 30.78303 38909 ft 483 kts 108°
2026-05-04 14:35 42.04172 30.86836 38888 ft 484 kts 107°
2026-05-04 14:35 42.01904 30.95354 38890 ft 484 kts 107°
2026-05-04 14:36 41.99647 31.03807 38890 ft 483 kts 108°
2026-05-04 14:36 41.97375 31.12316 38886 ft 483 kts 107°
2026-05-04 14:37 41.95100 31.20795 38882 ft 483 kts 107°
2026-05-04 14:37 41.92817 31.29273 38881 ft 482 kts 108°
2026-05-04 14:38 41.90529 31.37747 38877 ft 483 kts 108°
2026-05-04 14:38 41.88235 31.46211 38873 ft 483 kts 108°
2026-05-04 14:39 41.85931 31.54681 38875 ft 484 kts 108°
2026-05-04 14:39 41.83619 31.63153 38873 ft 484 kts 108°
2026-05-04 14:40 41.80138 31.75845 38873 ft 484 kts 108°
2026-05-04 14:40 41.77799 31.84311 38873 ft 484 kts 108°
2026-05-04 14:41 41.75456 31.92758 38889 ft 484 kts 108°
2026-05-04 14:42 41.70768 32.09599 38899 ft 484 kts 108°
2026-05-04 14:42 41.68414 32.18035 38900 ft 484 kts 108°
2026-05-04 14:43 41.66058 32.26467 38914 ft 484 kts 109°
2026-05-04 14:43 41.63697 32.34916 38900 ft 486 kts 109°
2026-05-04 14:44 41.61313 32.43363 38893 ft 486 kts 109°
2026-05-04 14:44 41.58913 32.51812 38896 ft 486 kts 109°
2026-05-04 14:45 41.56510 32.60256 38891 ft 487 kts 109°
2026-05-04 14:45 41.54105 32.68706 38886 ft 487 kts 109°
2026-05-04 14:46 41.51689 32.77166 38889 ft 487 kts 109°
2026-05-04 14:46 41.49268 32.85611 38885 ft 488 kts 110°
2026-05-04 14:47 41.46838 32.94061 38877 ft 488 kts 110°
2026-05-04 14:47 41.44044 33.02317 38877 ft 490 kts 116°
2026-05-04 14:48 41.40805 33.10298 38869 ft 490 kts 118°
2026-05-04 14:48 41.37491 33.18232 38868 ft 490 kts 118°
2026-05-04 14:49 41.34179 33.26142 38863 ft 489 kts 118°
2026-05-04 14:49 41.30953 33.34106 38852 ft 489 kts 117°
2026-05-04 14:50 41.27765 33.42094 38850 ft 488 kts 116°
2026-05-04 14:50 41.24630 33.50072 38838 ft 487 kts 116°
2026-05-04 14:51 41.21496 33.58033 38837 ft 486 kts 116°
2026-05-04 14:51 41.18345 33.65983 38832 ft 486 kts 116°
2026-05-04 14:52 41.15182 33.73927 38818 ft 487 kts 116°
2026-05-04 14:52 41.12010 33.81867 38809 ft 487 kts 117°
2026-05-04 14:53 41.08851 33.89757 38806 ft 487 kts 117°
2026-05-04 14:53 41.05665 33.97692 38798 ft 490 kts 116°
2026-05-04 14:54 41.02450 34.05678 38783 ft 491 kts 117°
2026-05-04 14:54 40.99227 34.13664 38774 ft 492 kts 117°
2026-05-04 14:55 40.95999 34.21638 38771 ft 493 kts 117°
2026-05-04 14:55 40.92754 34.29634 38764 ft 494 kts 117°
2026-05-04 14:56 40.89498 34.37639 38752 ft 494 kts 117°
2026-05-04 14:56 40.86238 34.45628 38746 ft 494 kts 118°
2026-05-04 14:57 40.82974 34.53605 38749 ft 493 kts 118°
2026-05-04 14:57 40.79712 34.61557 38746 ft 493 kts 118°
2026-05-04 14:58 40.76443 34.69507 38741 ft 493 kts 118°
2026-05-04 14:58 40.73159 34.77443 38741 ft 493 kts 119°
2026-05-04 14:59 40.69778 34.85308 38741 ft 493 kts 120°
2026-05-04 15:00 40.64670 34.97061 38745 ft 493 kts 120°
2026-05-04 15:00 40.61273 35.04897 38747 ft 493 kts 120°
2026-05-04 15:01 40.56202 35.16586 38747 ft 493 kts 120°
2026-05-04 15:01 40.52796 35.24412 38746 ft 493 kts 120°
2026-05-04 15:02 40.49384 35.32230 38746 ft 493 kts 120°
2026-05-04 15:02 40.45965 35.40044 38749 ft 493 kts 120°
2026-05-04 15:03 40.42541 35.47850 38748 ft 493 kts 120°
2026-05-04 15:03 40.39112 35.55646 38751 ft 493 kts 121°
2026-05-04 15:04 40.35678 35.63433 38762 ft 493 kts 121°
2026-05-04 15:04 40.32238 35.71215 38766 ft 493 kts 121°
2026-05-04 15:05 40.28790 35.78997 38770 ft 494 kts 121°
2026-05-04 15:05 40.25337 35.86768 38778 ft 494 kts 121°
2026-05-04 15:06 40.21879 35.94533 38781 ft 494 kts 121°
2026-05-04 15:07 40.16676 36.06178 38796 ft 494 kts 121°
2026-05-04 15:07 40.13199 36.13934 38801 ft 494 kts 121°
2026-05-04 15:08 40.09716 36.21685 38804 ft 496 kts 122°
2026-05-04 15:08 40.06213 36.29459 38795 ft 497 kts 122°
2026-05-04 15:09 40.02707 36.37224 38797 ft 497 kts 122°
2026-05-04 15:09 39.99192 36.44988 38798 ft 497 kts 122°
2026-05-04 15:10 39.93908 36.56625 38813 ft 497 kts 122°
2026-05-04 15:11 39.88610 36.68247 38820 ft 498 kts 122°
2026-05-04 15:11 39.85064 36.76002 38827 ft 498 kts 123°
2026-05-04 15:12 39.81535 36.83697 38831 ft 499 kts 123°
2026-05-04 15:12 39.77976 36.91455 38827 ft 499 kts 123°
2026-05-04 15:13 39.74474 36.99258 38828 ft 500 kts 122°
2026-05-04 15:13 39.70992 37.07071 38820 ft 500 kts 122°
2026-05-04 15:14 39.67496 37.14874 38814 ft 500 kts 122°
2026-05-04 15:14 39.63988 37.22663 38806 ft 500 kts 122°
2026-05-04 15:15 39.60474 37.30440 38800 ft 500 kts 122°
2026-05-04 15:15 39.56954 37.38216 38807 ft 500 kts 123°
2026-05-04 15:16 39.51665 37.49849 38812 ft 500 kts 123°
2026-05-04 15:17 39.46361 37.61461 38811 ft 499 kts 123°
2026-05-04 15:17 39.41054 37.73043 38817 ft 498 kts 123°
2026-05-04 15:18 39.38104 37.79434 38819 ft 498 kts 124°
2026-05-04 15:19 39.32774 37.90964 38830 ft 498 kts 123°
2026-05-04 15:19 39.27438 38.02475 38833 ft 498 kts 124°
2026-05-04 15:20 39.23877 38.10133 38836 ft 498 kts 124°
2026-05-04 15:20 39.20310 38.17787 38845 ft 498 kts 124°
2026-05-04 15:21 39.16739 38.25428 38838 ft 498 kts 124°
2026-05-04 15:22 39.11368 38.36889 38861 ft 498 kts 124°
2026-05-04 15:22 39.05985 38.48333 38856 ft 498 kts 124°
2026-05-04 15:23 39.02388 38.55954 38879 ft 499 kts 124°
2026-05-04 15:23 38.98808 38.63532 38890 ft 499 kts 124°
2026-05-04 15:24 38.91589 38.78742 38890 ft 499 kts 124°
2026-05-04 15:25 38.87972 38.86336 38893 ft 498 kts 124°
2026-05-04 15:26 38.82543 38.97713 38895 ft 499 kts 125°
2026-05-04 15:26 38.77144 39.09111 38901 ft 499 kts 125°
2026-05-04 15:27 38.71766 39.20514 38907 ft 500 kts 122°
2026-05-04 15:28 38.67722 39.32908 38915 ft 504 kts 114°
2026-05-04 15:29 38.64068 39.45536 38928 ft 505 kts 114°
2026-05-04 15:30 38.55565 39.75004 38931 ft 505 kts 114°
2026-05-04 15:31 38.51901 39.87626 38936 ft 505 kts 115°
2026-05-04 15:32 38.45754 40.08656 38935 ft 507 kts 115°
2026-05-04 15:34 38.39549 40.29727 38929 ft 509 kts 115°
2026-05-04 15:34 38.35795 40.42397 38927 ft 510 kts 115°
2026-05-04 15:35 38.32026 40.55062 38925 ft 510 kts 116°
2026-05-04 15:36 38.28242 40.67714 38924 ft 510 kts 116°
2026-05-04 15:36 38.25709 40.76146 38923 ft 511 kts 116°
2026-05-04 15:37 38.23167 40.84583 38915 ft 511 kts 116°
2026-05-04 15:37 38.20566 40.92983 38909 ft 510 kts 117°
2026-05-04 15:38 38.17942 41.01354 38917 ft 510 kts 117°
2026-05-04 15:38 38.15332 41.09683 38910 ft 511 kts 117°
2026-05-04 15:39 38.12702 41.18135 38907 ft 511 kts 117°
2026-05-04 15:40 38.08863 41.30710 38905 ft 512 kts 117°
2026-05-04 15:40 38.06281 41.39138 38909 ft 512 kts 117°
2026-05-04 15:41 38.03689 41.47554 38915 ft 512 kts 117°
2026-05-04 15:41 38.01084 41.55978 38916 ft 513 kts 118°
2026-05-04 15:42 37.98474 41.64406 38934 ft 513 kts 118°
2026-05-04 15:42 37.95860 41.72827 38933 ft 513 kts 118°
2026-05-04 15:43 37.93235 41.81252 38944 ft 516 kts 118°
2026-05-04 15:43 37.91113 41.90004 38935 ft 529 kts 104°
2026-05-04 15:44 37.90288 41.99290 38961 ft 533 kts 100°
2026-05-04 15:44 37.89714 42.08645 38957 ft 533 kts 99°
2026-05-04 15:45 37.89156 42.18001 38951 ft 532 kts 100°
2026-05-04 15:45 37.88559 42.27329 38973 ft 531 kts 100°
2026-05-04 15:46 37.87937 42.36651 38960 ft 532 kts 100°
2026-05-04 15:46 37.87305 42.45982 38969 ft 534 kts 101°
2026-05-04 15:47 37.86662 42.55298 38966 ft 535 kts 101°
2026-05-04 15:47 37.85597 42.64545 38966 ft 524 kts 112°
2026-05-04 15:47 37.84356 42.68827 38963 ft 513 kts 122°
2026-05-04 15:48 37.82715 42.72797 38949 ft 508 kts 126°
2026-05-04 15:48 37.77284 42.84263 38962 ft 506 kts 129°
2026-05-04 15:49 37.73584 42.91851 38968 ft 507 kts 129°
2026-05-04 15:49 37.69908 42.99454 38964 ft 508 kts 128°
2026-05-04 15:50 37.66226 43.07092 38971 ft 509 kts 128°
2026-05-04 15:50 37.62544 43.14727 38961 ft 509 kts 129°
2026-05-04 15:51 37.58853 43.22359 38980 ft 510 kts 129°
2026-05-04 15:51 37.55150 43.30000 38987 ft 510 kts 129°
2026-05-04 15:52 37.51448 43.37624 38969 ft 509 kts 129°
2026-05-04 15:52 37.47754 43.45198 38978 ft 512 kts 130°
2026-05-04 15:53 37.44015 43.52843 38974 ft 513 kts 129°
2026-05-04 15:53 37.40285 43.60475 38966 ft 513 kts 130°
2026-05-04 15:54 37.36526 43.68136 38948 ft 515 kts 130°
2026-05-04 15:54 37.32776 43.75771 38925 ft 512 kts 130°
2026-05-04 15:55 37.29017 43.83394 38951 ft 513 kts 130°
2026-05-04 15:55 37.24824 43.90455 38938 ft 495 kts 144°
2026-05-04 15:56 37.22257 43.93249 38943 ft 483 kts 153°
2026-05-04 15:56 37.19441 43.95430 38943 ft 471 kts 162°
2026-05-04 15:56 37.13460 43.98552 38940 ft 465 kts 168°
2026-05-04 15:57 37.07387 44.01328 38933 ft 464 kts 168°
2026-05-04 15:57 37.01296 44.04087 38918 ft 466 kts 169°
2026-05-04 15:58 36.95217 44.06879 38911 ft 464 kts 168°
2026-05-04 15:58 36.89164 44.09683 38901 ft 464 kts 168°
2026-05-04 15:59 36.83113 44.12486 38893 ft 464 kts 168°
2026-05-04 15:59 36.77067 44.15282 38877 ft 463 kts 168°
2026-05-04 16:00 36.71012 44.18081 38902 ft 465 kts 169°
2026-05-04 16:00 36.64949 44.20867 38887 ft 464 kts 169°
2026-05-04 16:01 36.58885 44.23649 38884 ft 464 kts 169°
2026-05-04 16:01 36.52818 44.26430 38884 ft 465 kts 169°
2026-05-04 16:02 36.46806 44.29185 38881 ft 462 kts 169°
2026-05-04 16:03 36.37775 44.33311 38877 ft 460 kts 169°
2026-05-04 16:03 36.31761 44.36054 38889 ft 461 kts 169°
2026-05-04 16:04 36.25725 44.38801 38870 ft 462 kts 169°
2026-05-04 16:04 36.16695 44.42906 38883 ft 460 kts 169°
2026-05-04 16:05 36.10675 44.45634 38845 ft 461 kts 169°
2026-05-04 16:06 36.01629 44.49725 38876 ft 462 kts 169°
2026-05-04 16:07 35.90563 44.54718 38865 ft 463 kts 169°
2026-05-04 16:08 35.78473 44.60159 38857 ft 463 kts 170°
2026-05-04 16:09 35.63312 44.66952 38860 ft 464 kts 170°
2026-05-04 16:10 35.51193 44.72364 38875 ft 463 kts 170°
2026-05-04 16:11 35.39060 44.77764 38877 ft 464 kts 170°
2026-05-04 16:12 35.20848 44.85840 38886 ft 464 kts 171°
2026-05-04 16:13 35.08711 44.91198 38874 ft 463 kts 171°
2026-05-04 16:14 34.96578 44.96539 38872 ft 464 kts 171°
2026-05-04 16:16 34.81482 45.03165 38870 ft 460 kts 171°
2026-05-04 16:17 34.66447 45.09730 38873 ft 459 kts 171°
2026-05-04 16:18 34.54417 45.14966 38869 ft 460 kts 171°
2026-05-04 16:19 34.45305 45.17238 38869 ft 438 kts 185°
2026-05-04 16:19 34.39239 45.17704 38866 ft 437 kts 187°
2026-05-04 16:20 34.24030 45.18661 38852 ft 438 kts 187°
2026-05-04 16:22 34.08796 45.19699 38866 ft 439 kts 187°
2026-05-04 16:23 33.90568 45.20935 38860 ft 438 kts 187°
2026-05-04 16:25 33.72306 45.22166 38858 ft 438 kts 187°
2026-05-04 16:26 33.51007 45.23596 38847 ft 438 kts 187°
2026-05-04 16:28 33.35728 45.24677 38855 ft 445 kts 184°
2026-05-04 16:28 33.26642 45.28317 38854 ft 485 kts 159°
2026-05-04 16:29 33.15721 45.38338 38851 ft 499 kts 152°
2026-05-04 16:31 33.02207 45.51191 38848 ft 498 kts 153°
2026-05-04 16:32 32.85841 45.66501 38843 ft 500 kts 153°
2026-05-04 16:33 32.74907 45.76711 38837 ft 500 kts 153°
2026-05-04 16:34 32.66681 45.84365 38834 ft 501 kts 153°
2026-05-04 16:35 32.50197 45.99659 38828 ft 502 kts 153°
2026-05-04 16:36 32.41929 46.07299 38829 ft 503 kts 153°
2026-05-04 16:37 32.33646 46.14939 38814 ft 503 kts 153°
2026-05-04 16:38 32.22598 46.25100 38813 ft 503 kts 153°
2026-05-04 16:39 32.08780 46.37762 38785 ft 503 kts 153°
2026-05-04 16:40 31.97715 46.47866 38806 ft 503 kts 154°
2026-05-04 16:41 31.83926 46.60413 38800 ft 502 kts 154°
2026-05-04 16:43 31.70088 46.72954 38798 ft 502 kts 154°
2026-05-04 16:43 31.61785 46.80456 38784 ft 503 kts 154°
2026-05-04 16:45 31.45133 46.95450 38777 ft 503 kts 153°
2026-05-04 16:46 31.31244 47.07904 38769 ft 503 kts 153°
2026-05-04 16:47 31.20168 47.17801 38764 ft 503 kts 153°
2026-05-04 16:48 31.09086 47.27676 38758 ft 501 kts 153°
2026-05-04 16:49 30.98010 47.37515 38755 ft 499 kts 153°
2026-05-04 16:50 30.86965 47.47295 38754 ft 498 kts 153°
2026-05-04 16:51 30.78843 47.54924 38750 ft 506 kts 148°
2026-05-04 16:52 30.68498 47.66071 38748 ft 507 kts 148°
2026-05-04 16:53 30.60694 47.74250 38735 ft 505 kts 149°
2026-05-04 16:54 30.50233 47.85103 38753 ft 503 kts 149°
2026-05-04 16:55 30.34610 48.01266 38735 ft 501 kts 149°
2026-05-04 16:56 30.21645 48.14626 38760 ft 500 kts 149°
2026-05-04 16:57 30.13840 48.22644 38776 ft 501 kts 149°
2026-05-04 16:58 30.04249 48.32473 38767 ft 502 kts 149°
2026-05-04 17:00 29.88490 48.48432 38771 ft 497 kts 154°
2026-05-04 17:01 29.74434 48.59588 38778 ft 490 kts 158°
2026-05-04 17:02 29.63065 48.68266 38775 ft 490 kts 158°
2026-05-04 17:03 29.54546 48.74771 38776 ft 490 kts 158°
2026-05-04 17:03 29.46037 48.81261 38776 ft 489 kts 158°
2026-05-04 17:04 29.34705 48.89880 38768 ft 489 kts 158°
2026-05-04 17:05 29.23383 48.98469 38780 ft 488 kts 158°
2026-05-04 17:06 29.14884 49.04901 38784 ft 488 kts 158°
2026-05-04 17:07 29.07342 49.10598 38785 ft 489 kts 158°
2026-05-04 17:07 29.00699 49.15605 38780 ft 489 kts 158°
2026-05-04 17:08 28.92207 49.21999 38785 ft 489 kts 158°
2026-05-04 17:09 28.86523 49.26272 38789 ft 489 kts 158°
2026-05-04 17:09 28.80832 49.30542 38808 ft 490 kts 158°
2026-05-04 17:10 28.66530 49.41249 38767 ft 493 kts 158°
2026-05-04 17:11 28.61057 49.46131 38788 ft 514 kts 143°
2026-05-04 17:11 28.56664 49.52748 38802 ft 532 kts 132°
2026-05-04 17:12 28.54714 49.56344 38794 ft 536 kts 130°
2026-05-04 17:13 28.45232 49.74628 38791 ft 536 kts 130°
2026-05-04 17:14 28.38176 49.83885 38794 ft 501 kts 154°
2026-05-04 17:14 28.35363 49.86196 38780 ft 498 kts 156°
2026-05-04 17:15 28.26728 49.92737 38788 ft 497 kts 157°
2026-05-04 17:16 28.15180 50.01414 38793 ft 499 kts 156°
2026-05-04 17:17 28.03640 50.10152 38779 ft 499 kts 156°
2026-05-04 17:18 27.92089 50.18874 38791 ft 499 kts 156°
2026-05-04 17:19 27.80514 50.27586 38788 ft 500 kts 155°
2026-05-04 17:20 27.68926 50.36290 38787 ft 500 kts 155°
2026-05-04 17:20 27.60242 50.42810 38786 ft 500 kts 155°
2026-05-04 17:21 27.48762 50.51627 38791 ft 501 kts 154°
2026-05-04 17:22 27.42999 50.56049 38790 ft 501 kts 154°
2026-05-04 17:23 27.31469 50.64854 38787 ft 501 kts 155°
2026-05-04 17:24 27.22809 50.71449 38787 ft 501 kts 154°
2026-05-04 17:25 27.11694 50.81058 38789 ft 513 kts 144°
2026-05-04 17:26 27.01616 50.92482 38786 ft 518 kts 139°
2026-05-04 17:26 26.95382 51.02601 38789 ft 530 kts 129°
2026-05-04 17:27 26.91512 51.09635 38780 ft 530 kts 128°
2026-05-04 17:28 26.85082 51.24576 38785 ft 540 kts 114°
2026-05-04 17:29 26.77944 51.48550 38783 ft 540 kts 114°
2026-05-04 17:31 26.71944 51.68466 38775 ft 541 kts 113°
2026-05-04 17:32 26.65974 51.88378 38776 ft 539 kts 113°
2026-05-04 17:33 26.60957 52.04091 38771 ft 538 kts 115°
2026-05-04 17:34 26.55776 52.19788 38761 ft 538 kts 115°
2026-05-04 17:35 26.49344 52.39395 38766 ft 538 kts 115°
2026-05-04 17:36 26.46766 52.47227 38594 ft 538 kts 115°
2026-05-04 17:36 26.45471 52.51150 37932 ft 539 kts 115°
2026-05-04 17:36 26.44170 52.55084 37072 ft 542 kts 114°
2026-05-04 17:36 26.42865 52.59029 36277 ft 543 kts 114°
2026-05-04 17:37 26.41553 52.62991 35515 ft 545 kts 114°
2026-05-04 17:37 26.40239 52.66968 34754 ft 546 kts 113°
2026-05-04 17:37 26.38923 52.70941 34032 ft 547 kts 113°
2026-05-04 17:37 26.37601 52.74925 33248 ft 548 kts 113°
2026-05-04 17:38 26.36278 52.78907 32446 ft 548 kts 113°
2026-05-04 17:38 26.34955 52.82887 31668 ft 548 kts 113°
2026-05-04 17:38 26.33632 52.86861 31087 ft 544 kts 113°
2026-05-04 17:38 26.32330 52.90770 30819 ft 532 kts 113°
2026-05-04 17:39 26.29827 52.98279 30759 ft 501 kts 113°
2026-05-04 17:39 26.28631 53.01859 30756 ft 485 kts 113°
2026-05-04 17:39 26.27469 53.05333 30754 ft 474 kts 114°
2026-05-04 17:40 26.25164 53.12185 30759 ft 472 kts 114°
2026-05-04 17:40 26.22855 53.19034 30758 ft 472 kts 114°
2026-05-04 17:41 26.20545 53.25887 30749 ft 472 kts 114°
2026-05-04 17:41 26.18196 53.32839 30627 ft 493 kts 113°
2026-05-04 17:42 26.16933 53.36412 30496 ft 497 kts 116°
2026-05-04 17:42 26.15543 53.39922 30266 ft 495 kts 118°
2026-05-04 17:42 26.14092 53.43393 30033 ft 494 kts 118°
2026-05-04 17:42 26.13124 53.45679 29886 ft 493 kts 118°
2026-05-04 17:43 26.11668 53.49124 29615 ft 491 kts 118°
2026-05-04 17:43 26.10231 53.52558 29353 ft 489 kts 118°
2026-05-04 17:43 26.08815 53.55980 29081 ft 486 kts 117°
2026-05-04 17:43 26.07414 53.59394 28821 ft 484 kts 117°
2026-05-04 17:44 26.06028 53.62786 28559 ft 481 kts 117°
2026-05-04 17:44 26.04649 53.66168 28299 ft 478 kts 117°
2026-05-04 17:44 26.03281 53.69524 28040 ft 474 kts 117°
2026-05-04 17:44 26.01930 53.72838 27647 ft 467 kts 117°
2026-05-04 17:45 26.00596 53.76105 27204 ft 463 kts 117°
2026-05-04 17:45 25.99290 53.79360 26741 ft 459 kts 116°
2026-05-04 17:45 25.98021 53.82595 26296 ft 455 kts 115°
2026-05-04 17:45 25.96770 53.85810 25833 ft 451 kts 115°
2026-05-04 17:46 25.95529 53.89002 25378 ft 448 kts 115°
2026-05-04 17:46 25.94294 53.92169 24923 ft 445 kts 115°
2026-05-04 17:46 25.93067 53.95304 24469 ft 441 kts 115°
2026-05-04 17:46 25.91844 53.98417 24014 ft 438 kts 115°
2026-05-04 17:47 25.90594 54.01496 23565 ft 435 kts 117°
2026-05-04 17:47 25.89296 54.04462 23076 ft 431 kts 118°
2026-05-04 17:47 25.87956 54.07422 22612 ft 427 kts 118°
2026-05-04 17:47 25.86623 54.10345 22124 ft 421 kts 118°
2026-05-04 17:48 25.85312 54.13232 21696 ft 417 kts 118°
2026-05-04 17:48 25.84022 54.16094 21266 ft 413 kts 118°
2026-05-04 17:48 25.82751 54.18937 20813 ft 410 kts 117°
2026-05-04 17:48 25.81654 54.21845 20353 ft 408 kts 112°
2026-05-04 17:49 25.80667 54.24783 19934 ft 404 kts 110°
2026-05-04 17:49 25.79734 54.27717 19504 ft 402 kts 110°
2026-05-04 17:49 25.78830 54.30643 19059 ft 400 kts 109°
2026-05-04 17:49 25.77941 54.33552 18632 ft 397 kts 109°
2026-05-04 17:50 25.77053 54.36451 18200 ft 396 kts 109°
2026-05-04 17:50 25.76168 54.39328 17727 ft 393 kts 109°
2026-05-04 17:50 25.75285 54.42181 17281 ft 389 kts 109°
2026-05-04 17:50 25.74409 54.45001 16854 ft 384 kts 109°
2026-05-04 17:51 25.73540 54.47788 16434 ft 381 kts 109°
2026-05-04 17:51 25.72677 54.50552 16016 ft 378 kts 109°
2026-05-04 17:51 25.71820 54.53292 15602 ft 375 kts 109°
2026-05-04 17:51 25.70968 54.56015 15186 ft 372 kts 108°
2026-05-04 17:52 25.70123 54.58712 14781 ft 369 kts 108°
2026-05-04 17:52 25.69286 54.61387 14400 ft 365 kts 108°
2026-05-04 17:52 25.68447 54.64012 14150 ft 358 kts 108°
2026-05-04 17:52 25.67615 54.66590 13801 ft 354 kts 108°
2026-05-04 17:53 25.66792 54.69141 13524 ft 347 kts 108°
2026-05-04 17:53 25.65997 54.71607 13383 ft 333 kts 108°
2026-05-04 17:53 25.65233 54.73979 13245 ft 321 kts 108°
2026-05-04 17:53 25.64497 54.76263 13109 ft 309 kts 108°
2026-05-04 17:54 25.63790 54.78459 12972 ft 297 kts 108°
2026-05-04 17:54 25.63112 54.80563 12710 ft 292 kts 107°
2026-05-04 17:54 25.62435 54.82670 12433 ft 288 kts 107°
2026-05-04 17:54 25.61764 54.84752 12168 ft 285 kts 107°
2026-05-04 17:55 25.61102 54.86807 11918 ft 281 kts 107°
2026-05-04 17:55 25.60366 54.88832 11792 ft 288 kts 111°
2026-05-04 17:55 25.59550 54.90870 11654 ft 290 kts 112°
2026-05-04 17:55 25.58733 54.92907 11509 ft 289 kts 111°
2026-05-04 17:56 25.57925 54.94943 11358 ft 288 kts 111°
2026-05-04 17:56 25.57125 54.96974 11223 ft 288 kts 111°
2026-05-04 17:56 25.56329 54.99004 11066 ft 287 kts 111°
2026-05-04 17:56 25.55538 55.01027 10943 ft 286 kts 111°
2026-05-04 17:57 25.54736 55.03037 10769 ft 285 kts 113°
2026-05-04 17:57 25.53805 55.04970 10635 ft 285 kts 117°
2026-05-04 17:57 25.52823 55.06868 10504 ft 284 kts 117°
2026-05-04 17:57 25.51840 55.08756 10350 ft 283 kts 117°
2026-05-04 17:58 25.50857 55.10644 10214 ft 282 kts 117°
2026-05-04 17:58 25.49880 55.12522 10064 ft 281 kts 117°
2026-05-04 17:58 25.48906 55.14397 9932 ft 280 kts 117°
2026-05-04 17:58 25.47934 55.16266 9785 ft 280 kts 117°
2026-05-04 17:59 25.46966 55.18129 9648 ft 279 kts 117°
2026-05-04 17:59 25.45935 55.19946 9494 ft 281 kts 125°
2026-05-04 17:59 25.43354 55.23230 9214 ft 283 kts 130°
2026-05-04 18:00 25.42031 55.24842 9065 ft 283 kts 130°
2026-05-04 18:00 25.40713 55.26452 8931 ft 282 kts 129°
2026-05-04 18:00 25.39401 55.28058 8784 ft 280 kts 130°
2026-05-04 18:00 25.38100 55.29652 8648 ft 278 kts 129°
2026-05-04 18:01 25.36830 55.31207 8524 ft 267 kts 130°
2026-05-04 18:01 25.35527 55.32619 8370 ft 259 kts 142°
2026-05-04 18:01 25.34002 55.33654 8263 ft 257 kts 150°
2026-05-04 18:02 25.30836 55.35497 7993 ft 257 kts 150°
2026-05-04 18:02 25.29255 55.36415 7878 ft 256 kts 150°
2026-05-04 18:02 25.27680 55.37332 7736 ft 256 kts 150°
2026-05-04 18:02 25.26108 55.38250 7618 ft 255 kts 150°
2026-05-04 18:03 25.24533 55.39171 7489 ft 256 kts 150°
2026-05-04 18:03 25.22960 55.40091 7347 ft 256 kts 150°
2026-05-04 18:03 25.21386 55.41012 7228 ft 256 kts 150°
2026-05-04 18:03 25.19816 55.41930 7090 ft 255 kts 150°
2026-05-04 18:04 25.18250 55.42846 6975 ft 254 kts 150°
2026-05-04 18:04 25.16687 55.43765 6874 ft 254 kts 150°
2026-05-04 18:04 25.13588 55.45574 6694 ft 253 kts 150°
2026-05-04 18:05 25.12017 55.46513 6596 ft 253 kts 147°
2026-05-04 18:05 25.10751 55.47782 6511 ft 249 kts 123°
2026-05-04 18:05 25.09801 55.49365 6410 ft 247 kts 118°
2026-05-04 18:05 25.08912 55.50987 6328 ft 247 kts 118°
2026-05-04 18:06 25.07142 55.54218 6132 ft 244 kts 119°
2026-05-04 18:06 25.06256 55.55815 6042 ft 244 kts 120°
2026-05-04 18:06 25.05366 55.57406 5953 ft 244 kts 120°
2026-05-04 18:07 25.04474 55.58999 5859 ft 245 kts 120°
2026-05-04 18:07 25.03580 55.60604 5771 ft 246 kts 120°
2026-05-04 18:07 25.02690 55.62214 5682 ft 246 kts 120°
2026-05-04 18:07 25.01802 55.63821 5598 ft 245 kts 120°
2026-05-04 18:08 25.00914 55.65425 5497 ft 245 kts 120°
2026-05-04 18:08 25.00031 55.67027 5401 ft 244 kts 120°
2026-05-04 18:08 24.99139 55.68620 5316 ft 244 kts 120°
2026-05-04 18:08 24.98264 55.70174 5211 ft 233 kts 120°
2026-05-04 18:09 24.96626 55.73091 5048 ft 221 kts 120°
2026-05-04 18:09 24.95025 55.75969 4917 ft 217 kts 118°
2026-05-04 18:10 24.94591 55.77528 4846 ft 215 kts 88°
2026-05-04 18:10 24.95062 55.79034 4791 ft 208 kts 47°
2026-05-04 18:10 24.96172 55.80018 4746 ft 205 kts 30°
2026-05-04 18:10 24.97310 55.80775 4706 ft 204 kts 28°
2026-05-04 18:11 24.98598 55.81368 4542 ft 201 kts
2026-05-04 18:11 24.99959 55.81186 4457 ft 200 kts 335°
2026-05-04 18:11 25.00989 55.80174 4411 ft 201 kts 307°
2026-05-04 18:11 25.01743 55.78868 4370 ft 202 kts 302°
2026-05-04 18:12 25.02461 55.77531 4314 ft 203 kts 302°
2026-05-04 18:12 25.03202 55.76207 4241 ft 203 kts 303°
2026-05-04 18:12 25.03952 55.74886 4170 ft 203 kts 303°
2026-05-04 18:12 25.04683 55.73576 4127 ft 203 kts 302°
2026-05-04 18:13 25.05420 55.72256 4031 ft 201 kts 302°
2026-05-04 18:13 25.06143 55.70965 3985 ft 197 kts 302°
2026-05-04 18:13 25.07585 55.68396 3998 ft 196 kts 302°
2026-05-04 18:14 25.08303 55.67113 3998 ft 197 kts 303°
2026-05-04 18:14 25.09023 55.65822 4001 ft 198 kts 303°
2026-05-04 18:14 25.09741 55.64527 3998 ft 198 kts 302°
2026-05-04 18:15 25.11178 55.61924 3999 ft 199 kts 302°
2026-05-04 18:15 25.12598 55.59351 3959 ft 197 kts 302°
2026-05-04 18:15 25.13310 55.58063 3764 ft 193 kts 302°
2026-05-04 18:16 25.13989 55.56838 3505 ft 182 kts 302°
2026-05-04 18:16 25.14630 55.55682 3256 ft 172 kts 302°
2026-05-04 18:16 25.15239 55.54582 3030 ft 164 kts 302°
2026-05-04 18:17 25.16357 55.52561 2628 ft 144 kts 302°
2026-05-04 18:17 25.16863 55.51647 2459 ft 141 kts 302°
2026-05-04 18:17 25.17723 55.50094 2172 ft 141 kts 302°
2026-05-04 18:18 25.18230 55.49173 1961 ft 141 kts 302°
2026-05-04 18:18 25.18736 55.48259 1746 ft 137 kts 302°
2026-05-04 18:18 25.19239 55.47360 1740 ft 139 kts 302°
2026-05-04 18:18 25.19758 55.46430 1522 ft 143 kts 302°
2026-05-04 18:19 25.20776 55.44583 1045 ft 138 kts 302°
2026-05-04 18:19 25.21279 55.43681 902 ft 138 kts 301°
2026-05-04 18:19 25.21781 55.42762 750 ft 140 kts 300°
2026-05-04 18:20 25.22289 55.41851 582 ft 141 kts 301°
2026-05-04 18:20 25.22799 55.40924 385 ft 142 kts 300°
2026-05-04 18:20 25.23305 55.40000 210 ft 140 kts 299°
2026-05-04 18:20 25.23816 55.39070 43 ft 142 kts 299°
2026-05-04 18:21 25.24295 55.38215 36 ft 108 kts 302°
2026-05-04 18:21 25.24570 55.37721 24 ft 60 kts 301°
2026-05-04 18:21 25.24746 55.37388 20 ft 35 kts 290°
2026-05-04 18:21 25.24785 55.37133 23 ft 34 kts 272°
2026-05-04 18:22 25.24794 55.36902 33 ft 23 kts 257°
2026-05-04 18:22 25.24689 55.36802 34 ft 18 kts 210°
2026-05-04 18:22 25.24632 55.36738 34 ft 9 kts 256°
2026-05-04 18:22 25.24636 55.36663 33 ft 9 kts 275°
2026-05-04 18:23 25.24637 55.36657 33 ft 0 kts 275°